• In Portugal
  • List of Countries
  • For 7 days
  • Water Temperature
  • Satellite Maps
  • Weather Map
  • Weather Widgets
  • user-avatar
    Login

    Hourly Weather Artashat

    Today, 24 February, Saturday

    Time Temperature Precipitation Wind Pressure Humidity
    00:00 -2°C° 0 mm 1 mps 595 mmHg 65%
    01:00 -2°C° 0 mm 1 mps 595 mmHg 65%
    02:00 -2°C° 0 mm 1 mps 595 mmHg 65%
    03:00 -3°C° 0 mm 1 mps 594 mmHg 66%
    04:00 -3°C° 0 mm 1 mps 594 mmHg 66%
    05:00 -3°C° 0 mm 1 mps 594 mmHg 66%
    06:00 -4°C° 0 mm 1 mps 594 mmHg 67%
    07:00 -3°C° 0 mm 1 mps 594 mmHg 64%
    08:00 -1°C° 0 mm 1 mps 595 mmHg 62%
    09:00 0°C° 0 mm 1 mps 595 mmHg 58%
    10:00 +1°C° 0 mm 1 mps 595 mmHg 56%
    11:00 +1°C° 0 mm 1 mps 595 mmHg 54%
    12:00 +2°C° 0 mm 1 mps 595 mmHg 52%
    13:00 +3°C° 0 mm 1 mps 595 mmHg 51%
    14:00 +3°C° 0 mm 1 mps 595 mmHg 50%
    15:00 +3°C° 0 mm 1 mps 594 mmHg 51%
    16:00 +2°C° 0 mm 1 mps 594 mmHg 53%
    17:00 0°C° 0 mm 0 mps 594 mmHg 55%
    18:00 0°C° 0 mm 0 mps 594 mmHg 57%
    19:00 0°C° 0 mm 1 mps 594 mmHg 58%
    20:00 -1°C° 0 mm 1 mps 594 mmHg 59%
    21:00 -1°C° 0 mm 1 mps 594 mmHg 60%
    22:00 -1°C° 0 mm 1 mps 594 mmHg 61%
    23:00 -2°C° 0 mm 1 mps 594 mmHg 61%

    Tomorrow, 25 February, Sunday

    Time Temperature Precipitation Wind Pressure Humidity
    00:00 -2°C° 0 mm 1 mps 594 mmHg 62%
    01:00 -3°C° 0 mm 1 mps 594 mmHg 62%
    02:00 -3°C° 0 mm 1 mps 594 mmHg 62%
    03:00 -3°C° 0 mm 1 mps 594 mmHg 62%
    04:00 -3°C° 0 mm 1 mps 594 mmHg 62%
    05:00 -4°C° 0 mm 1 mps 594 mmHg 63%
    06:00 -4°C° 0 mm 1 mps 594 mmHg 63%
    07:00 -3°C° 0 mm 1 mps 594 mmHg 61%
    08:00 -2°C° 0 mm 1 mps 595 mmHg 59%
    09:00 0°C° 0 mm 1 mps 595 mmHg 57%
    10:00 -1°C° 0 mm 2 mps 595 mmHg 55%
    11:00 +1°C° 0 mm 2 mps 595 mmHg 54%
    12:00 +2°C° 0 mm 2 mps 595 mmHg 52%
    13:00 +2°C° 0 mm 2 mps 595 mmHg 51%
    14:00 +2°C° 0 mm 2 mps 595 mmHg 50%
    15:00 +3°C° 0 mm 2 mps 594 mmHg 49%
    16:00 +2°C° 0 mm 2 mps 594 mmHg 52%
    17:00 +1°C° 0 mm 2 mps 594 mmHg 54%
    18:00 -1°C° 0 mm 2 mps 594 mmHg 57%
    19:00 -1°C° 0 mm 2 mps 594 mmHg 58%
    20:00 -2°C° 0 mm 2 mps 594 mmHg 59%
    21:00 -2°C° 0 mm 2 mps 594 mmHg 60%
    22:00 -3°C° 0 mm 2 mps 594 mmHg 60%
    23:00 -3°C° 0 mm 2 mps 594 mmHg 60%

    Day after tomorrow, 26 February, Monday

    Time Temperature Precipitation Wind Pressure Humidity
    00:00 -3°C° 0 mm 2 mps 593 mmHg 61%
    01:00 -3°C° 0 mm 2 mps 593 mmHg 61%
    02:00 -3°C° 0 mm 2 mps 593 mmHg 62%
    03:00 -3°C° 0 mm 2 mps 593 mmHg 63%
    04:00 -3°C° 0.1 mm 2 mps 593 mmHg 64%
    05:00 -3°C° 0.1 mm 2 mps 593 mmHg 65%
    06:00 -3°C° 0.1 mm 2 mps 593 mmHg 67%
    07:00 -3°C° 0.1 mm 2 mps 594 mmHg 67%
    08:00 -2°C° 0.1 mm 2 mps 594 mmHg 67%
    09:00 -2°C° 0.1 mm 2 mps 594 mmHg 66%
    10:00 +1°C° 0.2 mm 1 mps 594 mmHg 67%
    11:00 +1°C° 0.2 mm 1 mps 594 mmHg 67%
    12:00 +2°C° 0.2 mm 1 mps 594 mmHg 67%
    13:00 +2°C° 0.1 mm 1 mps 594 mmHg 66%
    14:00 +3°C° 0.1 mm 1 mps 594 mmHg 65%
    15:00 +2°C° 0.1 mm 2 mps 594 mmHg 64%
    16:00 +2°C° 0 mm 1 mps 594 mmHg 66%
    17:00 +2°C° 0 mm 1 mps 594 mmHg 69%
    18:00 +1°C° 0 mm 1 mps 593 mmHg 71%
    19:00 0°C° 0 mm 1 mps 594 mmHg 72%
    20:00 0°C° 0 mm 1 mps 594 mmHg 74%
    21:00 0°C° 0 mm 1 mps 594 mmHg 75%
    22:00 -1°C° 0 mm 1 mps 594 mmHg 75%
    23:00 -1°C° 0 mm 1 mps 594 mmHg 75%

    27 February, Tuesday

    Time Temperature Precipitation Wind Pressure Humidity
    00:00 -1°C° 0 mm 1 mps 594 mmHg 75%
    01:00 -1°C° 0 mm 1 mps 594 mmHg 75%
    02:00 -2°C° 0 mm 1 mps 594 mmHg 74%
    03:00 -2°C° 0 mm 1 mps 594 mmHg 74%
    04:00 -2°C° 0 mm 1 mps 594 mmHg 74%
    05:00 -2°C° 0 mm 1 mps 594 mmHg 75%
    06:00 -2°C° 0 mm 1 mps 594 mmHg 75%
    07:00 -1°C° 0 mm 1 mps 595 mmHg 73%
    08:00 0°C° 0 mm 1 mps 595 mmHg 70%
    09:00 +1°C° 0 mm 1 mps 596 mmHg 68%
    10:00 +1°C° 0 mm 1 mps 596 mmHg 66%
    11:00 +2°C° 0 mm 1 mps 596 mmHg 65%
    12:00 +3°C° 0 mm 1 mps 596 mmHg 64%
    13:00 +3°C° 0 mm 1 mps 596 mmHg 62%
    14:00 +4°C° 0 mm 1 mps 596 mmHg 61%
    15:00 +4°C° 0 mm 1 mps 596 mmHg 59%
    16:00 +3°C° 0 mm 1 mps 596 mmHg 61%
    17:00 +2°C° 0 mm 1 mps 596 mmHg 63%
    18:00 +2°C° 0 mm 1 mps 596 mmHg 65%
    19:00 +1°C° 0 mm 1 mps 596 mmHg 66%
    20:00 0°C° 0 mm 1 mps 597 mmHg 66%
    21:00 0°C° 0 mm 1 mps 597 mmHg 66%
    22:00 0°C° 0 mm 1 mps 597 mmHg 66%
    23:00 -3°C° 0 mm 2 mps 597 mmHg 66%

    28 February, Wednesday

    Time Temperature Precipitation Wind Pressure Humidity
    00:00 -3°C° 0 mm 2 mps 597 mmHg 65%
    01:00 -3°C° 0 mm 2 mps 597 mmHg 65%
    02:00 -1°C° 0 mm 1 mps 597 mmHg 65%
    03:00 -2°C° 0 mm 1 mps 597 mmHg 66%
    04:00 -2°C° 0 mm 1 mps 597 mmHg 66%
    05:00 -2°C° 0 mm 1 mps 597 mmHg 66%
    06:00 -2°C° 0 mm 1 mps 597 mmHg 66%
    07:00 -1°C° 0 mm 1 mps 598 mmHg 64%
    08:00 0°C° 0 mm 1 mps 599 mmHg 61%
    09:00 +1°C° 0 mm 1 mps 599 mmHg 58%
    10:00 +2°C° 0 mm 1 mps 599 mmHg 57%
    11:00 +3°C° 0 mm 1 mps 599 mmHg 56%
    12:00 +4°C° 0 mm 1 mps 599 mmHg 54%
    13:00 +5°C° 0 mm 1 mps 599 mmHg 54%
    14:00 +5°C° 0 mm 1 mps 599 mmHg 53%
    15:00 +5°C° 0 mm 1 mps 599 mmHg 52%
    16:00 +4°C° 0 mm 1 mps 599 mmHg 54%
    17:00 +3°C° 0 mm 1 mps 598 mmHg 56%
    18:00 +2°C° 0 mm 1 mps 598 mmHg 58%
    19:00 +2°C° 0 mm 1 mps 598 mmHg 58%
    20:00 +1°C° 0 mm 1 mps 598 mmHg 59%
    21:00 +1°C° 0 mm 1 mps 598 mmHg 60%
    22:00 0°C° 0 mm 1 mps 598 mmHg 60%
    23:00 0°C° 0 mm 1 mps 598 mmHg 60%

    1 March, Thursday

    Time Temperature Precipitation Wind Pressure Humidity
    00:00 0°C° 0 mm 1 mps 598 mmHg 60%
    01:00 -1°C° 0 mm 1 mps 598 mmHg 60%
    02:00 -1°C° 0 mm 1 mps 598 mmHg 60%
    03:00 -3°C° 0 mm 2 mps 597 mmHg 60%
    04:00 -4°C° 0 mm 2 mps 597 mmHg 60%
    05:00 -4°C° 0 mm 2 mps 597 mmHg 61%
    06:00 -2°C° 0 mm 1 mps 597 mmHg 61%
    07:00 -1°C° 0 mm 1 mps 597 mmHg 58%
    08:00 0°C° 0 mm 1 mps 597 mmHg 55%
    09:00 +1°C° 0 mm 1 mps 598 mmHg 52%
    10:00 +2°C° 0 mm 1 mps 598 mmHg 50%
    11:00 +3°C° 0 mm 1 mps 598 mmHg 49%
    12:00 +4°C° 0 mm 1 mps 597 mmHg 47%
    13:00 +5°C° 0 mm 1 mps 597 mmHg 45%
    14:00 +5°C° 0 mm 1 mps 597 mmHg 44%
    15:00 +6°C° 0 mm 1 mps 597 mmHg 42%
    16:00 +4°C° 0 mm 2 mps 596 mmHg 44%
    17:00 +3°C° 0 mm 2 mps 596 mmHg 46%
    18:00 +2°C° 0 mm 2 mps 596 mmHg 47%
    19:00 +2°C° 0 mm 2 mps 596 mmHg 49%
    20:00 +1°C° 0 mm 2 mps 596 mmHg 51%
    21:00 +1°C° 0 mm 2 mps 596 mmHg 53%
    22:00 -1°C° 0.2 mm 2 mps 596 mmHg 56%
    23:00 -1°C° 0.2 mm 2 mps 596 mmHg 60%
    Show more